Location: Baia Mare
(47.6567°N, 23.5850°E)
Time: 14:55:20
(UTC+03:00)

ISS - Pass Details

Date: 02 August 2018
Orbit: 402 x 408 km, 51.6° (Epoch: 21 July)

Event Time Altitude Azimuth Distance (km) Brightness Sun altitude
Rises 23:59:49 0° 289° (WNW) 2,324 0.7 -21.3°
Reaches altitude 10° 00:02:05 10° 277° (W) 1,462 -0.7 -21.5°
Enters shadow 00:03:24 19° 259° (W) 1,055 -1.6 -21.5°
